sat.trackr.live / text

‹ back to catalog

2025-292J

NORAD 67001 · 2025-292J

PAYLOAD ACTIVE UNKNOWN

§ Identity

Operator
Country
PRC
Launch date
2025-12-10
Launch site
JSC
Launch vehicle
Mass (kg)
RCS (m²)

External: N2YO · Heavens-Above · Gunter

§ Orbital elements

Epoch: 2026-05-24T10:58:00.392736Z

Period
95.60 min
Inclination
97.6347°
Eccentricity
0.0016924
Mean motion
15.06293873 rev/d
Perigee alt
535.8 km
Apogee alt
559.3 km
Semi-major
6,925.7 km
B*
2.4193e-4
RAAN
220.4746°
Arg perigee
78.7584°
Mean anomaly
281.5544°
Rev number
2,487

§ Raw data

2025-292J1 67001U 25292J   26144.45694899  .00003502  00000+0  24193-3 0  99962 67001  97.6347 220.4746 0016924  78.7584 281.5544 15.06293873 24872

JSON: /api/v1/satellites/67001 · /tle

For live sub-satellite position, see the globe view (requires WebGL).

§ Visibility from observer

Set your observer location to see the next 7 days of passes ≥ 10°. The values pass through the URL so the page stays shareable.

No JS? Fill the form by hand. The geolocation button needs JavaScript.